FENGYUN 1C DEB, 31990

Orbit data source: Space-Track

FENGYUN 1C DEB, 31990 is space debris in SSO originally from a launch on Mon, 10 May 1999 UTC launched from the Taiyaun Space Center, China (TSC). Fengyun 1C debris stems from the Chinese weather satellite Fengyun-1C, which was intentionally destroyed by a Chinese anti-satellite missile in 2007. This event dramatically increased the amount of space debris, with thousands of trackable fragments posing hazards to satellites and human spaceflight. The Fengyun 1C debris cloud has become a focal point in discussions about space sustainability and the need for international regulations to prevent the creation of new debris.

Loading next visibility...
Identifier
31990, 1999-025CPT
Orbit
SSO
Country
Flag of CNCN / PRC
Related business
Manufacturer
Unknown
Mission
Spacecraft
Bus & Motor
Unknown
Mass
Unknown
Launch date (UTC)
1999-05-10 (26 years ago)
Launch vehicle
Unknown
Launch site
Taiyaun Space Center, China (TSC)
Object type
Payload
Rocket body
Debris
Shape & HBR
Unknown shape, 0.1 m
Radar Cross Section
Small (<0.1 m²)

Expand to show TLE details & history
Last TLE update: 3 days ago

TLE from 3 days ago
0 FENGYUN 1C DEB
1 31990U 99025CPT 25307.56601108  .00000245  00000-0  32399-3 0  9991
2 31990  99.1657 332.6942 0259318 285.0150 229.5662 13.57173616622405
Epoch: 2025-11-03T13:35Z
TLE epoch observation values (Epoch: 2025-11-03T13:35:03.357Z)
Latitude
27.28872°
Longitude
-89.38477°
Altitude
1,176.938 km
Speed
7.205 km/s
True Right ascension
10h 29m 46s
True Declination
27° 09' 24"
Sunlit
Object was in daylight at epoch
Visualization orbit readout
Latitude
Unknown
Longitude
Unknown
Altitude
Unknown
Speed
Unknown
Apparent Right ascension
Unknown
Apparent Declination
Unknown
Sunlit
N/A
Visualization observer readout
Local Sidereal Time
11:11:07
Azimuth
Unknown
Elevation
Unknown
Doppler factor
Unknown
Orbital elements
Apogee altitude
1,235.694 km
Perigee altitude
850.794 km
Semi-major axis
7,421.381 km
Eccentricity
0.02593
Inclination
99.1657°
RAAN
332.6942°
Arg. of periapsis
285.015°
True anomaly
227.35153°
Mean anomaly
229.5662°
Eccentric anomaly
228.4542°
Mean motion
3.39481 °/min
Orbital period
106.04 mins
BSTAR
0.00032399
Loading maneuver chart data...
Computing Atmospheric mass density...

Documentation

Showing up to 5 results
|